Location: Poughquag
(41.6090°N, 73.6820°W)
Time: 14:22:19
(UTC-04:00)

Vanguard 3 - Pass Details

Date: 31 May 2020
Orbit: 510 x 3261 km, 33.3° (Epoch: 05 July)

Event Time Altitude Azimuth Distance (km) Brightness Sun altitude
Exits shadow 04:39:21 - 242° (WSW) 6,021 10.9 -7.6°
Reaches altitude 10° 04:40:44 10° 241° (WSW) 5,675 10.8 -7.4°
Maximum altitude 04:55:53 52° 172° (S) 2,380 9.4 -5.1°
Drops below altitude 10° 05:04:47 10° 99° (E) 3,447 11.1 -3.7°
Sets 05:07:11 0° 94° (E) 4,131 11.7 -3.4°
